Location: Hollin Hills
(38.7573°N, 77.0661°W)
Time: 18:28:21
(UTC+00:00)

BlueWalker 3 - Pass Details

Date: 11 April 2026
Orbit: 447 x 458 km, 53.2° (Epoch: 12 May)

Event Time Altitude Azimuth Distance (km) Brightness Sun altitude
Rises 00:01:11 0° 316° (NW) 2,474 6.6 -4.8°
Reaches altitude 10° 00:03:24 10° 323° (NW) 1,599 5.4 -5.2°
Maximum altitude 00:06:50 42° 36° (NE) 663 2.4 -5.8°
Drops below altitude 10° 00:10:16 10° 109° (ESE) 1,594 3.8 -6.5°
Enters shadow 00:10:37 - 110° (ESE) 1,726 4.0 -6.5°
